Temperature
18 18 18 18 18 18 18 17 17 17 17 17 17 17 17 17 17 17 17 17 17 17 17 17 17 16 17 16 16 16 16 16 16 16 16 16 16 16 16 16 15 15 15
18 18 18 18 18 18 18 18 18 18 18 17 17 17 17 17 17 17 17 17 17 17 17 17 17 17 17 16 16 16 16 16 16 16 16 16 16 16 16 16 15 15 15
18 18 18 18 18 18 18 18 18 18 18 17 17 17 17 17 17 17 17 17 17 17 17 17 17 17 17 16 16 16 16 16 16 16 16 16 16 16 16 16 15 15 15
18 18 18 18 18 17 18 18 17 17 17 17 17 17 17 17 17 17 17 17 17 17 17 17 17 17 17 16 16 16 16 16 16 16 16 16 16 16 16 16 15 15 15
18 18 18 18 17 17 17 17 17 17 17 17 17 17 17 17 17 17 17 17 17 17 17 17 17 17 17 17 16 16 16 16 16 16 16 16 16 16 16 16 16 15 15
17 18 18 17 17 17 17 17 17 17 17 17 17 17 17 17 17 17 17 17 17 17 17 17 17 17 17 17 16 16 16 16 16 16 16 16 16 16 16 16 16 15 15
18 18 18 18 17 17 17 17 17 17 17 17 17 17 17 17 17 17 17 17 17 17 17 17 17 17 17 17 16 16 16 16 16 16 16 16 16 16 16 16 16 15 15
18 18 18 18 18 17 17 17 17 17 17 17 17 17 17 17 18 17 17 17 17 17 17 17 17 17 17 17 17 16 16 16 16 16 16 16 16 16 16 15 15 15 15
18 17 17 18 18 17 17 17 17 17 17 17 17 17 17 17 17 17 17 17 17 17 17 17 17 17 17 17 17 16 16 16 16 16 16 16 16 16 15 15 15 15 15
17 17 17 18 18 18 17 17 17 17 17 17 17 17 17 17 17 17 17 17 17 17 17 17 17 17 17 16 16 16 16 16 16 16 16 16 16 16 15 15 15 15 15
17 17 17 17 17 17 17 17 17 17 17 17 17 17 17 17 17 16 17 17 17 17 17 17 17 17 16 16 16 16 16 16 16 16 16 16 16 16 15 15 15 15 15
18 17 17 17 17 17 17 17 17 17 17 17 17 17 17 16 16 16 16 16 16 17 17 16 16 16 16 16 16 16 16 16 16 16 16 16 15 15 15 15 15 15 15
18 17 17 17 17 17 17 17 17 17 17 17 17 17 17 17 16 16 16 16 16 16 16 16 16 16 16 16 16 16 16 16 16 16 15 15 15 15 15 15 15 15 14
18 17 17 17 17 17 17 17 17 17 16 16 16 16 16 16 16 16 16 16 15 15 16 16 16 16 16 16 16 16 16 16 15 15 15 15 15 15 15 14 14 14 14
17 17 17 17 17 17 17 17 17 16 16 16 16 16 16 16 16 16 16 15 15 15 15 15 15 15 15 15 15 15 15 15 15 15 15 15 14 14 14 14 14 14 14
17 17 17 17 17 17 16 16 16 16 16 16 16 16 16 16 15 15 15 15 15 15 15 15 15 15 15 15 15 15 15 15 14 14 14 14 14 14 14 13 13 13 13
17 17 17 16 16 16 16 16 16 16 16 15 15 15 15 15 15 15 15 15 15 15 14 14 14 14 14 14 14 14 14 14 14 14 14 13 13 13 13 13 13 13 13
17 16 16 16 16 16 16 16 16 15 15 15 15 15 15 15 15 15 15 14 14 14 14 14 14 14 14 13 14 13 13 13 13 13 13 13 13 13 12 12 12 12 12
16 16 16 16 15 15 15 15 15 15 15 15 14 14 14 14 14 14 14 14 14 14 14 14 13 13 13 13 13 13 13 12 12 12 12 12 12 12 12 11 11 11 11
16 16 15 15 15 15 15 15 15 15 14 14 14 14 14 14 14 14 14 14 14 13 13 13 13 13 12 12 12 12 12 12 12 11 11 11 11 11 11 11 11 11 10
15 15 15 15 15 15 14 14 14 14 14 14 14 13 13 13 13 13 13 13 13 13 13 13 12 12 12 12 12 11 11 11 11 11 11 11 11 11 10 10 10 10 10
15 15 15 14 14 14 14 14 14 14 14 13 13 13 13 13 13 13 13 12 12 12 12 12 12 12 11 11 11 11 11 11 10 10 10 10 10 10 10 9 9 9 9
14 14 14 14 14 14 13 13 13 13 13 13 13 12 12 12 12 12 12 12 12 12 12 12 12 11 11 11 11 11 10 10 10 9 10 9 9 9 9 9 9 9 9
14 14 13 13 13 13 13 13 12 12 12 12 12 12 12 12 11 12 12 12 11 11 11 11 11 11 11 10 10 10 10 10 10 9 9 9 8 8 8 8 8 8 8
14 13 13 13 13 12 12 12 12 12 12 12 11 11 11 11 11 11 11 11 11 11 10 10 10 10 10 10 10 10 9 9 9 9 8 8 8 8 8 8 7 8 8
13 13 13 12 12 12 11 11 11 11 11 11 11 11 10 10 10 10 11 11 10 10 10 10 10 10 9 9 9 9 9 9 9 8 8 8 8 7 7 7 7 7 7
Wind_Speed
2 1 0 0 0 0 0 0 1 1 1 2 3 5 5 6 6 6 6 9 10 11 11 11 10 10 10 10 10 10 10 10 10 10 10 10 10 9 9 9 9 8 8
4 2 1 1 2 2 1 1 0 1 0 1 2 4 5 6 6 7 7 8 10 11 11 11 11 11 11 11 10 10 10 10 11 11 10 10 10 10 10 10 9 9 8
6 4 3 2 3 3 2 0 0 1 0 0 1 2 3 5 6 7 8 8 9 11 12 13 12 12 12 12 12 12 12 12 12 12 12 11 11 11 11 11 11 10 10
8 6 4 3 4 3 2 1 1 0 0 1 1 2 2 4 6 7 8 8 9 9 11 13 13 13 13 13 13 13 13 13 13 13 13 13 13 13 13 13 12 12 12
7 7 5 4 4 3 2 2 2 2 2 2 2 2 2 3 5 7 8 9 9 9 10 11 13 14 14 15 15 14 14 14 14 14 14 14 14 14 14 14 14 14 13
7 7 5 4 4 2 2 2 2 2 2 2 2 2 2 3 4 5 7 8 9 10 11 11 11 12 14 15 15 15 15 15 15 15 15 16 16 16 16 16 16 15 15
6 6 4 4 4 4 4 3 2 2 1 1 1 1 2 2 3 4 5 6 7 10 10 11 11 11 11 13 15 15 15 15 15 16 16 17 17 17 17 17 17 17 17
6 6 5 4 4 4 3 3 3 2 2 2 2 1 2 2 2 3 4 5 6 7 8 10 11 11 11 11 12 15 16 16 16 16 16 17 18 18 18 18 18 18 18
5 5 5 4 4 4 4 5 5 5 3 2 2 3 2 3 2 2 3 4 4 4 6 8 10 11 12 11 11 13 15 15 16 16 16 16 16 17 18 19 19 18 18
4 5 5 5 4 4 4 5 5 4 4 3 2 2 2 2 2 2 2 2 3 4 5 6 7 10 11 10 11 12 13 13 14 14 14 15 16 16 17 17 18 18 18
2 3 3 3 3 4 4 4 4 4 4 4 3 2 2 2 3 3 3 2 1 2 3 4 5 6 8 9 10 11 12 13 13 13 14 14 14 15 15 16 17 17 18
1 1 2 2 3 3 4 4 4 4 4 4 4 3 3 3 3 4 5 4 3 2 2 3 4 5 7 8 9 9 10 11 12 13 13 13 13 14 14 14 15 15 16
1 1 0 1 1 2 2 2 2 3 3 4 4 3 4 4 3 3 4 3 3 2 2 2 3 4 4 5 7 8 9 10 10 11 11 11 11 11 11 12 13 13 12
1 0 0 0 1 1 1 1 1 1 1 3 3 3 3 3 3 3 3 3 3 2 2 3 1 1 2 3 4 5 5 6 8 9 9 9 8 8 7 7 7 8 9
0 1 1 1 1 1 1 2 1 0 0 1 1 2 2 2 2 3 3 3 3 3 3 2 1 1 0 1 0 0 1 1 2 4 5 5 5 5 4 4 4 4 4
2 2 3 3 3 3 3 2 2 1 1 1 0 1 1 1 2 2 2 2 3 3 3 1 1 1 1 1 2 3 3 4 4 4 4 3 3 3 3 3 3 3 2
3 3 4 4 4 3 3 3 2 2 2 2 2 2 2 2 2 1 1 0 1 2 3 1 1 1 1 2 4 5 5 5 6 8 7 7 6 6 5 5 5 5 4
4 4 4 5 4 4 4 3 3 3 3 3 3 3 3 3 3 2 1 0 0 1 1 1 1 2 2 2 3 4 5 5 6 8 8 8 8 8 8 8 7 7 6
5 5 5 5 5 5 4 4 4 4 4 4 4 4 4 3 4 3 2 1 1 1 1 1 1 1 1 2 3 3 5 5 6 7 8 8 8 9 9 9 9 8 7
5 5 5 5 4 4 4 4 5 5 5 5 5 5 5 4 4 3 3 3 2 3 3 2 2 2 2 2 2 2 3 3 3 5 7 7 8 9 9 9 9 9 8
6 5 6 5 5 4 5 5 5 6 6 6 6 6 6 8 9 6 5 4 4 3 3 4 3 2 2 2 1 1 2 2 3 3 3 5 5 6 6 7 8 8 8
6 7 7 6 7 6 8 9 7 6 7 7 7 7 7 9 11 12 12 11 9 6 5 4 3 3 2 2 1 1 1 1 1 2 2 3 4 4 5 6 8 8 8
7 7 7 7 8 8 10 10 11 7 7 7 7 6 6 7 8 8 10 12 13 13 9 5 5 3 2 2 1 1 1 2 1 1 1 3 3 4 5 7 9 9 9
6 6 7 7 7 8 9 10 11 9 8 8 7 7 7 7 7 7 8 10 10 10 10 7 6 5 4 3 2 2 2 4 4 3 3 2 3 3 4 6 9 9 9
6 6 6 7 7 7 9 10 9 7 8 9 8 8 7 7 8 9 9 9 9 8 12 14 13 12 13 12 8 5 5 4 4 3 3 2 2 2 3 4 7 9 9
6 6 7 6 6 6 8 9 9 6 7 7 7 8 10 9 9 9 8 8 8 6 7 9 10 12 12 12 12 7 4 4 3 2 3 2 1 1 2 2 4 5 6
Wind_Direction
180 188 246 292 274 14 79 26 26 48 68 122 157 166 174 180 181 187 194 194 195 192 190 190 188 186 184 184 185 184 184 183 182 182 182 182 181 181 183 183 183 182 181
193 192 211 239 259 256 255 256 293 39 44 134 172 182 187 191 195 196 202 206 207 204 201 200 199 198 197 196 197 198 199 198 195 195 196 196 194 194 194 194 194 193 193
204 199 205 228 242 239 228 203 345 36 75 160 190 197 197 204 205 204 206 210 215 216 214 211 209 209 209 207 209 209 209 208 206 205 205 204 203 204 205 204 203 202 202
210 196 202 226 231 219 197 177 173 139 241 204 212 217 203 208 212 212 211 215 218 221 223 222 220 219 219 219 221 218 217 215 214 213 213 212 212 212 213 212 212 212 211
209 200 205 217 212 204 206 210 182 181 209 222 224 223 223 218 216 217 216 220 222 224 227 229 229 228 228 228 229 226 222 221 219 219 219 219 218 218 218 218 217 217 217
212 201 204 207 196 194 212 207 200 189 204 213 230 239 247 235 221 222 224 223 226 230 231 231 232 235 235 235 235 232 229 226 225 225 225 224 224 223 222 222 221 221 221
218 206 206 197 191 198 211 206 199 201 215 179 144 319 308 258 233 232 228 226 229 231 230 228 229 231 236 238 239 237 236 233 230 229 229 228 228 227 225 225 225 225 225
218 216 210 204 198 194 206 206 192 192 220 182 163 148 315 319 284 240 225 228 236 231 229 229 228 228 232 234 238 240 240 239 238 236 234 232 231 230 228 228 228 228 228
221 217 213 210 200 195 207 212 201 197 210 207 183 166 180 239 287 289 239 231 230 227 231 229 229 231 231 233 238 239 240 240 240 240 239 236 233 231 230 230 230 231 231
225 224 221 219 210 205 212 220 208 205 198 214 209 205 204 184 202 284 291 251 231 235 236 234 234 234 232 229 231 235 237 239 241 244 243 241 236 233 233 233 233 232 233
239 235 229 223 217 213 219 223 209 207 208 211 208 195 204 216 213 218 262 276 260 248 240 239 240 238 235 229 229 232 233 236 238 241 244 244 240 236 236 238 237 236 236
279 263 227 219 218 217 221 225 216 209 214 220 220 211 199 200 207 209 232 250 260 265 255 245 238 239 236 232 232 232 233 234 236 238 240 243 244 239 237 239 239 239 239
263 275 224 219 233 233 230 222 214 219 216 223 226 227 224 230 218 206 221 241 253 266 271 261 246 243 244 240 239 236 234 233 236 239 238 239 243 244 243 243 241 240 240
260 322 102 176 278 274 260 206 208 228 228 234 241 237 239 244 231 220 215 216 248 262 250 254 274 257 244 250 255 244 242 236 235 236 235 233 231 230 235 237 235 234 233
27 54 80 79 45 52 73 98 96 89 171 226 243 241 249 255 244 240 234 222 223 255 268 246 243 299 134 115 2 165 212 229 230 234 230 226 217 209 208 205 202 208 222
53 60 61 70 65 60 63 80 68 53 67 13 341 307 295 287 275 261 247 241 230 230 252 274 250 289 42 93 79 76 71 70 67 84 84 97 120 130 137 128 124 128 144
59 64 69 68 61 52 53 67 60 48 50 28 17 21 355 346 326 311 293 232 213 210 237 287 358 12 45 62 62 69 67 70 71 78 82 82 86 93 95 96 98 101 102
66 70 73 72 64 54 54 65 64 58 58 43 25 28 14 9 5 -0 20 33 206 196 182 219 355 29 46 53 64 66 64 68 71 70 77 82 87 91 92 94 95 95 95
75 72 73 70 62 55 55 60 67 67 60 50 40 36 22 23 24 23 30 35 37 77 114 134 67 28 42 63 68 65 60 57 67 66 71 77 85 86 86 90 92 91 89
80 75 71 69 67 62 57 59 65 67 64 55 48 43 38 35 36 32 40 39 59 73 84 96 83 48 39 45 71 67 58 46 50 55 63 67 74 79 80 82 84 82 77
76 73 71 64 58 60 57 59 65 69 66 60 51 44 49 54 52 52 60 58 67 76 79 77 72 56 40 39 38 42 76 64 43 45 56 54 60 67 66 69 74 75 75
70 69 65 62 59 59 57 65 75 71 68 65 57 47 49 50 54 57 62 64 67 72 77 75 70 62 37 15 23 87 97 81 49 18 50 49 49 60 59 61 66 73 73
73 70 64 64 63 55 59 69 72 75 71 62 56 51 54 50 52 59 61 59 55 54 60 77 75 53 30 355 25 66 51 62 66 17 66 60 45 55 55 60 64 71 73
79 75 67 64 64 55 64 75 77 74 71 61 56 54 57 51 54 67 71 65 56 48 49 56 62 50 43 37 55 82 96 85 73 49 50 67 40 45 45 53 62 73 74
81 74 69 66 66 55 61 73 76 74 69 58 49 49 55 58 53 71 78 74 63 49 53 60 61 58 55 55 62 76 75 84 67 41 28 61 63 49 47 46 50 59 66
93 86 72 62 65 60 60 70 74 79 73 63 51 45 50 59 60 68 77 77 70 50 48 49 48 45 47 48 49 54 68 83 75 55 27 43 56 60 69 44 36 43 52
Height
1569 1569 1570 1571 1572 1573 1573 1574 1575 1576 1576 1577 1577 1577 1578 1578 1578 1579 1579 1580 1580 1581 1582 1582 1583 1584 1585 1586 1586 1587 1588 1589 1590 1591 1592 1593 1594 1595 1595 1596 1597 1598 1599
1569 1570 1571 1572 1573 1573 1574 1575 1575 1576 1577 1577 1577 1578 1578 1579 1579 1579 1580 1580 1581 1581 1582 1582 1583 1584 1584 1585 1586 1587 1588 1589 1590 1590 1591 1592 1593 1594 1595 1595 1596 1597 1598
1569 1570 1571 1572 1573 1574 1574 1575 1576 1576 1576 1577 1577 1578 1578 1579 1579 1579 1580 1580 1581 1581 1582 1582 1583 1583 1584 1585 1585 1586 1587 1588 1589 1589 1590 1591 1592 1592 1593 1594 1595 1596 1597
1569 1570 1570 1571 1572 1573 1574 1574 1575 1575 1576 1576 1577 1577 1578 1578 1578 1579 1579 1580 1580 1581 1581 1581 1582 1582 1583 1584 1584 1585 1585 1586 1587 1588 1589 1589 1590 1591 1592 1592 1593 1594 1595
1568 1569 1569 1571 1572 1573 1573 1574 1574 1575 1575 1576 1576 1576 1577 1577 1577 1578 1578 1578 1579 1579 1580 1580 1581 1581 1582 1582 1583 1583 1584 1584 1585 1586 1587 1587 1588 1589 1590 1590 1591 1592 1593
1567 1567 1568 1569 1570 1571 1572 1573 1573 1574 1574 1575 1575 1575 1575 1575 1575 1576 1576 1577 1577 1577 1578 1579 1579 1579 1580 1580 1581 1581 1582 1582 1583 1583 1584 1585 1585 1586 1587 1588 1589 1590 1590
1565 1566 1566 1568 1569 1569 1570 1571 1572 1572 1573 1573 1573 1573 1573 1573 1573 1573 1574 1574 1575 1575 1576 1576 1577 1577 1577 1578 1578 1578 1579 1579 1580 1580 1581 1582 1582 1583 1584 1585 1585 1586 1587
1563 1564 1565 1566 1567 1568 1568 1569 1570 1570 1570 1571 1571 1571 1571 1571 1570 1571 1571 1572 1572 1573 1573 1573 1574 1574 1574 1575 1575 1576 1576 1576 1576 1577 1577 1578 1579 1579 1580 1581 1582 1583 1583
1561 1562 1563 1564 1565 1565 1566 1567 1568 1568 1568 1569 1569 1570 1569 1568 1568 1569 1569 1569 1570 1570 1570 1570 1570 1571 1571 1571 1572 1572 1572 1573 1573 1573 1574 1574 1575 1575 1576 1576 1577 1578 1579
1560 1561 1562 1562 1563 1563 1564 1564 1565 1565 1566 1566 1566 1567 1568 1567 1567 1566 1566 1566 1567 1567 1567 1567 1567 1567 1568 1568 1568 1568 1569 1569 1569 1570 1570 1570 1571 1571 1572 1572 1573 1573 1574
1558 1559 1560 1560 1560 1561 1561 1562 1562 1562 1563 1563 1563 1564 1564 1564 1564 1564 1563 1563 1563 1564 1563 1563 1563 1564 1564 1564 1564 1565 1565 1565 1565 1566 1566 1566 1566 1567 1567 1568 1568 1569 1570
1556 1557 1557 1558 1558 1558 1558 1559 1559 1559 1559 1560 1560 1561 1560 1560 1560 1560 1560 1560 1559 1560 1560 1560 1560 1560 1560 1560 1560 1561 1561 1561 1561 1561 1562 1562 1562 1562 1563 1563 1563 1564 1565
1554 1555 1555 1556 1556 1556 1556 1556 1556 1556 1556 1557 1557 1557 1557 1557 1557 1557 1556 1556 1555 1555 1555 1555 1556 1556 1556 1556 1556 1556 1556 1556 1556 1557 1557 1557 1557 1557 1558 1558 1558 1559 1560
1553 1553 1553 1553 1554 1554 1553 1553 1553 1553 1553 1553 1554 1553 1553 1553 1553 1552 1552 1552 1551 1551 1551 1551 1551 1551 1551 1552 1552 1552 1552 1552 1552 1552 1552 1552 1552 1553 1553 1553 1553 1554 1555
1551 1551 1551 1552 1552 1551 1551 1551 1551 1551 1550 1550 1550 1550 1550 1549 1549 1548 1548 1548 1549 1547 1547 1547 1547 1547 1547 1547 1547 1548 1548 1547 1547 1547 1547 1547 1547 1548 1548 1548 1549 1549 1550
1550 1550 1550 1550 1550 1550 1549 1549 1548 1548 1548 1548 1547 1547 1546 1546 1545 1545 1544 1544 1544 1544 1543 1543 1544 1544 1543 1543 1543 1543 1543 1543 1543 1543 1543 1543 1543 1543 1544 1544 1545 1545 1546
1549 1549 1548 1548 1548 1548 1548 1547 1546 1546 1546 1545 1545 1544 1543 1543 1542 1542 1541 1541 1541 1541 1540 1540 1541 1541 1540 1540 1540 1540 1540 1540 1540 1540 1540 1540 1540 1540 1540 1540 1541 1541 1542
1548 1548 1547 1547 1547 1546 1546 1545 1544 1544 1544 1543 1542 1542 1541 1541 1540 1539 1539 1538 1538 1538 1538 1538 1538 1538 1538 1538 1538 1538 1538 1538 1537 1538 1537 1537 1538 1538 1537 1537 1538 1538 1539
1547 1547 1547 1546 1546 1545 1545 1544 1544 1543 1542 1542 1541 1540 1539 1539 1538 1537 1537 1537 1536 1536 1536 1536 1536 1537 1537 1536 1536 1536 1536 1535 1535 1535 1535 1535 1536 1536 1536 1536 1536 1536 1536
1547 1547 1547 1546 1546 1545 1544 1544 1543 1542 1542 1541 1540 1539 1539 1538 1537 1536 1536 1535 1535 1535 1535 1535 1535 1535 1535 1535 1535 1534 1534 1534 1534 1534 1534 1534 1534 1534 1534 1534 1534 1534 1534
1547 1547 1547 1547 1546 1545 1544 1544 1543 1542 1541 1541 1540 1540 1539 1538 1537 1536 1536 1535 1535 1535 1534 1534 1534 1534 1534 1534 1534 1534 1533 1533 1533 1533 1533 1533 1533 1533 1533 1533 1533 1533 1533
1548 1548 1547 1547 1546 1545 1545 1544 1543 1542 1542 1541 1540 1540 1539 1539 1538 1537 1537 1536 1536 1536 1535 1535 1535 1534 1534 1534 1534 1534 1533 1532 1532 1533 1532 1532 1533 1533 1533 1533 1533 1533 1533
1548 1548 1548 1548 1547 1546 1545 1544 1544 1543 1542 1542 1541 1541 1540 1540 1540 1539 1538 1538 1537 1537 1537 1537 1536 1535 1535 1534 1533 1533 1532 1532 1531 1531 1532 1532 1532 1533 1533 1533 1533 1533 1532
1549 1549 1549 1548 1548 1547 1546 1546 1545 1545 1544 1543 1543 1543 1542 1541 1541 1541 1540 1540 1539 1538 1538 1537 1537 1536 1536 1535 1534 1533 1532 1531 1531 1531 1532 1532 1533 1533 1533 1533 1533 1533 1532
1549 1549 1549 1549 1549 1548 1548 1548 1547 1546 1545 1545 1545 1545 1544 1544 1543 1543 1542 1541 1541 1540 1540 1539 1539 1538 1537 1536 1535 1534 1533 1532 1532 1532 1532 1532 1533 1533 1534 1534 1534 1534 1533
1550 1550 1550 1550 1550 1550 1550 1550 1549 1549 1548 1547 1547 1547 1547 1546 1546 1545 1544 1543 1542 1542 1542 1541 1540 1539 1538 1537 1536 1536 1535 1534 1533 1533 1533 1533 1534 1534 1535 1535 1535 1535 1534